[ hide orbit diagram ]
For accurate long-term ephemerides, please instead use our Horizons system.This orbit viewer was implemented using two-body methods, and hence should not be used for determining accurate long-term trajectories (over several years or decades) or planetary encounter circumstances.
Orbital Elements at Epoch 2459200.5 (2020-Dec-17.0) TDB
Reference: JPL 34 (heliocentric ecliptic J2000)
Element | Value | Uncertainty (1-sigma) | Units |
e | .142692768326366 | 4.2172e-08 | |
a | 3.045939135550129 | 1.4291e-08 | au |
q | 2.611305648144863 | 1.275e-07 | au |
i | 3.323612592904849 | 4.7324e-06 | deg |
node | 359.4236297596801 | 5.0317e-05 | deg |
peri | 188.9940834543476 | 5.1707e-05 | deg |
M | 164.7911349971145 | 1.3567e-05 | deg |
tp | 2458311.684535131264 (2018-Jul-12.18453513) | 7.0447e-05 | TDB |
period | 1941.691628972322 5.32 | 1.3665e-05 3.741e-08 | d yr |
n | .1854053417279947 | 1.3048e-09 | deg/d |
Q | 3.480572622955395 | 1.633e-08 | au |
|
| | Orbit Determination Parameters
Additional Information
|
[ show covariance matrix ]
Physical Parameter Table
Parameter |
Symbol |
Value |
Units |
Sigma |
Reference |
Notes |
absolute magnitude |
H |
13.0 |
|
n/a |
MPO358704 |
|
|
7565 Zipfel | Discovered 1988 Sept. 14 by S. J. Bus at Cerro Tololo. |
Jutta Zipfel (b. 1964) is curator of meteorites at Forschungsinstitut Senckenberg in Frankfurt. Her research focuses on petrologic and geochemical studies of meteorites and she played a key role in deciphering the early partial melting of minor planets. |
NOTE: some special characters may not display properly (any characters within {} are an attempt to place the proper accent above a character) |
Reference: 20060809/MPCPages.arc | Last Updated: 2007-08-08 |
|
[ show close-approach data ]
|